Location: Unspecified
(0.0000°N, 0.0000°E)
Time: 22:22:04
(UTC+00:00)

DMSP 5D-3 F17 - Visible Passes

Search period start: 22 April 2019 00:00
Search period end: 02 May 2019 00:00
Orbit: 839 x 852 km, 98.8° (Epoch: 21 April)

Date Brightness Start Highest point End Pass type
(mag) Time Alt. Az. Time Alt. Az. Time Alt. Az.
22 Apr 8.3 05:20:33 10° E 05:22:18 11° ESE 05:24:02 10° ESE visible
22 Apr 8.0 19:43:17 10° SW 19:46:06 14° WSW 19:48:55 10° WNW visible
23 Apr 7.6 19:28:53 10° SSW 19:32:51 21° WSW 19:36:49 10° NW visible
24 Apr 7.1 19:14:56 10° SSW 19:19:36 29° WSW 19:24:17 10° NW visible
25 Apr 6.5 19:01:13 10° S 19:06:20 42° WSW 19:11:28 10° NNW visible
26 Apr 5.8 18:47:42 10° S 18:53:05 60° WSW 18:58:28 10° NNW visible
27 Apr 5.3 18:34:21 10° SSE 18:39:49 86° WSW 18:45:18 10° NNW visible
28 Apr 5.2 18:21:08 10° SSE 18:26:34 67° ENE 18:31:59 10° N visible
29 Apr 8.1 05:26:55 10° ENE 05:29:48 14° ESE 05:32:39 10° SE visible
29 Apr 8.1 19:51:55 10° WSW 19:53:35 11° WSW 19:55:15 10° W visible
30 Apr 7.8 19:36:55 10° SW 19:40:20 17° WSW 19:43:45 10° WNW visible
01 May 7.4 19:22:46 10° SSW 19:27:05 24° WSW 19:31:26 10° NW visible
